owner,sensor,date,latitude,longitude,vertical_datum,mass_concentration_of_oxygen_in_sea_water,qcFlag 
DISL,ioos:station:DISL:CATA:1,2019-04-01T00:30:00Z,30.3085,-88.1395,2.517,8.48,1111122 
DISL,ioos:station:DISL:CATA:1,2019-04-01T01:30:00Z,30.3085,-88.1395,2.49,8.38,1111122 
DISL,ioos:station:DISL:CATA:1,2019-04-01T02:30:00Z,30.3085,-88.1395,2.493,8.16,1111122 
DISL,ioos:station:DISL:CATA:1,2019-04-01T03:30:00Z,30.3085,-88.1395,2.466,7.85,1111122 
DISL,ioos:station:DISL:CATA:1,2019-04-01T04:30:00Z,30.3085,-88.1395,2.466,7.68,1111122 
DISL,ioos:station:DISL:CATA:1,2019-04-01T05:30:00Z,30.3085,-88.1395,2.411,7.42,1111122 
DISL,ioos:station:DISL:CATA:1,2019-04-01T06:30:00Z,30.3085,-88.1395,2.354,8.72,1111122 
DISL,ioos:station:DISL:CATA:1,2019-04-01T07:30:00Z,30.3085,-88.1395,2.285,8.84,1111122 
DISL,ioos:station:DISL:CATA:1,2019-04-01T08:30:00Z,30.3085,-88.1395,2.244,9.08,1111122 
DISL,ioos:station:DISL:CATA:1,2019-04-01T09:30:00Z,30.3085,-88.1395,2.177,8.81,1111122 
DISL,ioos:station:DISL:CATA:1,2019-04-01T10:30:00Z,30.3085,-88.1395,2.172,8.8,1111122 
DISL,ioos:station:DISL:CATA:1,2019-04-01T11:30:00Z,30.3085,-88.1395,2.207,8.76,1111122 
DISL,ioos:station:DISL:CATA:1,2019-04-01T12:30:00Z,30.3085,-88.1395,2.241,8.8,1111122 
DISL,ioos:station:DISL:CATA:1,2019-04-01T13:30:00Z,30.3085,-88.1395,2.262,8.73,1111122 
DISL,ioos:station:DISL:CATA:1,2019-04-01T14:30:00Z,30.3085,-88.1395,2.25,8.89,1111122 
DISL,ioos:station:DISL:CATA:1,2019-04-01T15:30:00Z,30.3085,-88.1395,2.263,9.02,1111122 
DISL,ioos:station:DISL:CATA:1,2019-04-01T16:30:00Z,30.3085,-88.1395,2.325,8.46,1111122 
DISL,ioos:station:DISL:CATA:1,2019-04-01T17:30:00Z,30.3085,-88.1395,2.382,9.48,1111122 
DISL,ioos:station:DISL:CATA:1,2019-04-01T18:30:00Z,30.3085,-88.1395,2.409,10.32,1111122 
DISL,ioos:station:DISL:CATA:1,2019-04-01T19:30:00Z,30.3085,-88.1395,2.443,10.58,1111122 
DISL,ioos:station:DISL:CATA:1,2019-04-01T20:30:00Z,30.3085,-88.1395,2.472,10.84,1111122 
DISL,ioos:station:DISL:CATA:1,2019-04-01T21:30:00Z,30.3085,-88.1395,2.48,10.53,1111122 
DISL,ioos:station:DISL:CATA:1,2019-04-01T22:30:00Z,30.3085,-88.1395,2.511,10.46,1111122 
DISL,ioos:station:DISL:CATA:1,2019-04-01T23:30:00Z,30.3085,-88.1395,2.553,10.46,1111122 
DISL,ioos:station:DISL:CATA:1,2019-04-02T00:30:00Z,30.3085,-88.1395,2.575,10.05,1111122 
DISL,ioos:station:DISL:CATA:1,2019-04-02T01:30:00Z,30.3085,-88.1395,2.596,9.9,1111122 
DISL,ioos:station:DISL:CATA:1,2019-04-02T02:30:00Z,30.3085,-88.1395,2.588,9.77,1111122 
DISL,ioos:station:DISL:CATA:1,2019-04-02T03:30:00Z,30.3085,-88.1395,2.59,9.59,1111122 
DISL,ioos:station:DISL:CATA:1,2019-04-02T04:30:00Z,30.3085,-88.1395,2.565,9.45,1111122 
DISL,ioos:station:DISL:CATA:1,2019-04-02T06:00:00Z,30.3085,-88.1395,2.463,8.62,1111122 
DISL,ioos:station:DISL:CATA:1,2019-04-02T06:30:00Z,30.3085,-88.1395,2.427,9.06,1111122 
DISL,ioos:station:DISL:CATA:1,2019-04-02T07:30:00Z,30.3085,-88.1395,2.368,8.76,1111122 
DISL,ioos:station:DISL:CATA:1,2019-04-02T08:30:00Z,30.3085,-88.1395,2.321,8.36,1111122 
DISL,ioos:station:DISL:CATA:1,2019-04-02T09:30:00Z,30.3085,-88.1395,2.309,9.02,1111122 
DISL,ioos:station:DISL:CATA:1,2019-04-02T10:30:00Z,30.3085,-88.1395,2.296,8.45,1111122 
DISL,ioos:station:DISL:CATA:1,2019-04-02T11:30:00Z,30.3085,-88.1395,2.227,8.29,1111122 
DISL,ioos:station:DISL:CATA:1,2019-04-02T12:30:00Z,30.3085,-88.1395,2.233,8.63,1111122 
DISL,ioos:station:DISL:CATA:1,2019-04-02T13:30:00Z,30.3085,-88.1395,2.245,8.77,1111122 
DISL,ioos:station:DISL:CATA:1,2019-04-02T14:30:00Z,30.3085,-88.1395,2.316,8.83,1111122 
DISL,ioos:station:DISL:CATA:1,2019-04-02T15:30:00Z,30.3085,-88.1395,2.329,9.33,1111122 
DISL,ioos:station:DISL:CATA:1,2019-04-02T16:30:00Z,30.3085,-88.1395,2.378,9.97,1111122 
DISL,ioos:station:DISL:CATA:1,2019-04-02T17:30:00Z,30.3085,-88.1395,2.381,10.2,1111122 
DISL,ioos:station:DISL:CATA:1,2019-04-02T18:30:00Z,30.3085,-88.1395,2.402,10.17,1111122 
DISL,ioos:station:DISL:CATA:1,2019-04-02T19:30:00Z,30.3085,-88.1395,2.402,10.05,1111122 
DISL,ioos:station:DISL:CATA:1,2019-04-02T20:30:00Z,30.3085,-88.1395,2.433,10.1,1111122 
DISL,ioos:station:DISL:CATA:1,2019-04-02T21:30:00Z,30.3085,-88.1395,2.436,10.27,1111122 
DISL,ioos:station:DISL:CATA:1,2019-04-02T22:30:00Z,30.3085,-88.1395,2.448,10.12,1111122 
DISL,ioos:station:DISL:CATA:1,2019-04-02T23:30:00Z,30.3085,-88.1395,2.467,10.07,1111122 
DISL,ioos:station:DISL:CATA:1,2019-04-03T00:30:00Z,30.3085,-88.1395,2.495,9.93,1111122 
DISL,ioos:station:DISL:CATA:1,2019-04-03T01:30:00Z,30.3085,-88.1395,2.512,9.88,1111122 
DISL,ioos:station:DISL:CATA:1,2019-04-03T02:30:00Z,30.3085,-88.1395,2.504,9.84,1111122 
DISL,ioos:station:DISL:CATA:1,2019-04-03T03:30:00Z,30.3085,-88.1395,2.487,9.77,1111122 
DISL,ioos:station:DISL:CATA:1,2019-04-03T04:30:00Z,30.3085,-88.1395,2.467,8.81,1111122 
DISL,ioos:station:DISL:CATA:1,2019-04-03T05:30:00Z,30.3085,-88.1395,2.441,7.88,1111122 
DISL,ioos:station:DISL:CATA:1,2019-04-03T06:30:00Z,30.3085,-88.1395,2.396,8.69,1111122 
DISL,ioos:station:DISL:CATA:1,2019-04-03T07:30:00Z,30.3085,-88.1395,2.347,9.21,1111122 
DISL,ioos:station:DISL:CATA:1,2019-04-03T08:30:00Z,30.3085,-88.1395,2.298,9.63,1111122 
DISL,ioos:station:DISL:CATA:1,2019-04-03T09:30:00Z,30.3085,-88.1395,2.257,9.7,1111122 
DISL,ioos:station:DISL:CATA:1,2019-04-03T10:30:00Z,30.3085,-88.1395,2.243,9.72,1111122 
DISL,ioos:station:DISL:CATA:1,2019-04-03T11:30:00Z,30.3085,-88.1395,2.247,9.75,1111122 
DISL,ioos:station:DISL:CATA:1,2019-04-03T12:30:00Z,30.3085,-88.1395,2.258,9.73,1111122 
DISL,ioos:station:DISL:CATA:1,2019-04-03T13:30:00Z,30.3085,-88.1395,2.272,9.75,1111122 
DISL,ioos:station:DISL:CATA:1,2019-04-03T14:30:00Z,30.3085,-88.1395,2.289,9.85,1111122 
DISL,ioos:station:DISL:CATA:1,2019-04-03T15:30:00Z,30.3085,-88.1395,2.299,9.71,1111122 
DISL,ioos:station:DISL:CATA:1,2019-04-03T16:30:00Z,30.3085,-88.1395,2.329,9.13,1111122 
DISL,ioos:station:DISL:CATA:1,2019-04-03T17:30:00Z,30.3085,-88.1395,2.355,9.17,1111122 
DISL,ioos:station:DISL:CATA:1,2019-04-03T18:30:00Z,30.3085,-88.1395,2.376,9.78,1111122 
DISL,ioos:station:DISL:CATA:1,2019-04-03T19:30:00Z,30.3085,-88.1395,2.37,10.12,1111122 
DISL,ioos:station:DISL:CATA:1,2019-04-03T20:30:00Z,30.3085,-88.1395,2.337,10.07,1111122 
DISL,ioos:station:DISL:CATA:1,2019-04-03T21:30:00Z,30.3085,-88.1395,2.314,10.23,1111122 
DISL,ioos:station:DISL:CATA:1,2019-04-03T22:30:00Z,30.3085,-88.1395,2.334,10.37,1111122 
DISL,ioos:station:DISL:CATA:1,2019-04-03T23:30:00Z,30.3085,-88.1395,2.384,10.43,1111122 
DISL,ioos:station:DISL:CATA:1,2019-04-04T00:30:00Z,30.3085,-88.1395,2.415,9.93,1111122 
DISL,ioos:station:DISL:CATA:1,2019-04-04T01:30:00Z,30.3085,-88.1395,2.437,9.73,1111122 
DISL,ioos:station:DISL:CATA:1,2019-04-04T02:30:00Z,30.3085,-88.1395,2.438,9.24,1111122 
DISL,ioos:station:DISL:CATA:1,2019-04-04T03:30:00Z,30.3085,-88.1395,2.45,9.0,1111122 
DISL,ioos:station:DISL:CATA:1,2019-04-04T04:30:00Z,30.3085,-88.1395,2.465,9.41,1111122 
DISL,ioos:station:DISL:CATA:1,2019-04-04T05:30:00Z,30.3085,-88.1395,2.476,9.14,1111122 
DISL,ioos:station:DISL:CATA:1,2019-04-04T06:30:00Z,30.3085,-88.1395,2.445,9.08,1111122 
DISL,ioos:station:DISL:CATA:1,2019-04-04T07:30:00Z,30.3085,-88.1395,2.448,9.12,1111122 
DISL,ioos:station:DISL:CATA:1,2019-04-04T08:30:00Z,30.3085,-88.1395,2.401,8.99,1111122 
DISL,ioos:station:DISL:CATA:1,2019-04-04T09:30:00Z,30.3085,-88.1395,2.349,9.05,1111122 
DISL,ioos:station:DISL:CATA:1,2019-04-04T10:30:00Z,30.3085,-88.1395,2.308,9.3,1111122 
DISL,ioos:station:DISL:CATA:1,2019-04-04T11:30:00Z,30.3085,-88.1395,2.289,9.38,1111122 
DISL,ioos:station:DISL:CATA:1,2019-04-04T12:30:00Z,30.3085,-88.1395,2.3,9.3,1111122 
DISL,ioos:station:DISL:CATA:1,2019-04-04T13:30:00Z,30.3085,-88.1395,2.35,9.18,1111122 
DISL,ioos:station:DISL:CATA:1,2019-04-04T14:30:00Z,30.3085,-88.1395,2.381,9.28,1111122 
DISL,ioos:station:DISL:CATA:1,2019-04-04T15:30:00Z,30.3085,-88.1395,2.423,9.08,1111122 
DISL,ioos:station:DISL:CATA:1,2019-04-04T16:30:00Z,30.3085,-88.1395,2.47,9.11,1111122 
DISL,ioos:station:DISL:CATA:1,2019-04-04T17:30:00Z,30.3085,-88.1395,2.437,8.89,1111122 
DISL,ioos:station:DISL:CATA:1,2019-04-04T18:30:00Z,30.3085,-88.1395,2.484,8.81,1111122 
DISL,ioos:station:DISL:CATA:1,2019-04-04T19:30:00Z,30.3085,-88.1395,2.408,8.75,1111122 
DISL,ioos:station:DISL:CATA:1,2019-04-04T20:30:00Z,30.3085,-88.1395,2.306,9.01,1111122 
DISL,ioos:station:DISL:CATA:1,2019-04-04T21:30:00Z,30.3085,-88.1395,2.288,9.03,1111122 
DISL,ioos:station:DISL:CATA:1,2019-04-04T22:30:00Z,30.3085,-88.1395,2.317,9.0,1111122 
DISL,ioos:station:DISL:CATA:1,2019-04-04T23:30:00Z,30.3085,-88.1395,2.233,8.98,1111122 
DISL,ioos:station:DISL:CATA:1,2019-04-05T00:30:00Z,30.3085,-88.1395,2.269,8.95,1111122 
DISL,ioos:station:DISL:CATA:1,2019-04-05T01:30:00Z,30.3085,-88.1395,2.356,8.89,1111122 
DISL,ioos:station:DISL:CATA:1,2019-04-05T02:30:00Z,30.3085,-88.1395,2.55,8.79,1111122 
DISL,ioos:station:DISL:CATA:1,2019-04-05T03:30:00Z,30.3085,-88.1395,2.546,8.79,1111122 
DISL,ioos:station:DISL:CATA:1,2019-04-05T04:30:00Z,30.3085,-88.1395,2.601,8.71,1111122 
DISL,ioos:station:DISL:CATA:1,2019-04-05T05:30:00Z,30.3085,-88.1395,2.532,8.44,1111122 
DISL,ioos:station:DISL:CATA:1,2019-04-05T06:30:00Z,30.3085,-88.1395,2.493,8.51,1111122 
DISL,ioos:station:DISL:CATA:1,2019-04-05T07:30:00Z,30.3085,-88.1395,2.547,8.63,1111122 
DISL,ioos:station:DISL:CATA:1,2019-04-05T08:30:00Z,30.3085,-88.1395,2.548,8.23,1111122 
DISL,ioos:station:DISL:CATA:1,2019-04-05T09:30:00Z,30.3085,-88.1395,2.53,7.72,1111122 
DISL,ioos:station:DISL:CATA:1,2019-04-05T10:30:00Z,30.3085,-88.1395,2.497,8.3,1111122 
DISL,ioos:station:DISL:CATA:1,2019-04-05T11:30:00Z,30.3085,-88.1395,2.523,8.41,1111122 
DISL,ioos:station:DISL:CATA:1,2019-04-05T12:30:00Z,30.3085,-88.1395,2.523,8.47,1111122 
DISL,ioos:station:DISL:CATA:1,2019-04-05T13:30:00Z,30.3085,-88.1395,2.524,7.47,1111122 
DISL,ioos:station:DISL:CATA:1,2019-04-05T14:30:00Z,30.3085,-88.1395,2.522,6.92,1111122 
DISL,ioos:station:DISL:CATA:1,2019-04-05T15:30:00Z,30.3085,-88.1395,2.546,7.87,1111122 
DISL,ioos:station:DISL:CATA:1,2019-04-05T16:30:00Z,30.3085,-88.1395,2.543,8.16,1111122 
DISL,ioos:station:DISL:CATA:1,2019-04-05T17:30:00Z,30.3085,-88.1395,2.541,8.19,1111122 
DISL,ioos:station:DISL:CATA:1,2019-04-05T18:30:00Z,30.3085,-88.1395,2.534,7.43,1111122 
DISL,ioos:station:DISL:CATA:1,2019-04-05T19:30:00Z,30.3085,-88.1395,2.495,7.98,1111122 
DISL,ioos:station:DISL:CATA:1,2019-04-05T20:30:00Z,30.3085,-88.1395,2.454,8.0,1111122 
DISL,ioos:station:DISL:CATA:1,2019-04-05T21:30:00Z,30.3085,-88.1395,2.419,8.74,1111122 
DISL,ioos:station:DISL:CATA:1,2019-04-05T22:30:00Z,30.3085,-88.1395,2.356,9.1,1111122 
DISL,ioos:station:DISL:CATA:1,2019-04-05T23:30:00Z,30.3085,-88.1395,2.34,8.94,1111122 
DISL,ioos:station:DISL:CATA:1,2019-04-06T00:30:00Z,30.3085,-88.1395,2.361,8.81,1111122 
DISL,ioos:station:DISL:CATA:1,2019-04-06T01:30:00Z,30.3085,-88.1395,2.409,8.67,1111122 
DISL,ioos:station:DISL:CATA:1,2019-04-06T02:30:00Z,30.3085,-88.1395,2.463,7.82,1111122 
DISL,ioos:station:DISL:CATA:1,2019-04-06T03:30:00Z,30.3085,-88.1395,2.486,8.65,1111122 
DISL,ioos:station:DISL:CATA:1,2019-04-06T04:30:00Z,30.3085,-88.1395,2.463,8.61,1111122 
DISL,ioos:station:DISL:CATA:1,2019-04-06T05:30:00Z,30.3085,-88.1395,2.521,8.54,1111122 
DISL,ioos:station:DISL:CATA:1,2019-04-06T06:30:00Z,30.3085,-88.1395,2.565,8.34,1111122 
DISL,ioos:station:DISL:CATA:1,2019-04-06T07:30:00Z,30.3085,-88.1395,2.594,8.25,1111122 
DISL,ioos:station:DISL:CATA:1,2019-04-06T08:30:00Z,30.3085,-88.1395,2.598,8.12,1111122 
DISL,ioos:station:DISL:CATA:1,2019-04-06T09:30:00Z,30.3085,-88.1395,2.577,7.81,1111122 
DISL,ioos:station:DISL:CATA:1,2019-04-06T10:30:00Z,30.3085,-88.1395,2.55,7.67,1111122 
DISL,ioos:station:DISL:CATA:1,2019-04-06T11:30:00Z,30.3085,-88.1395,2.516,7.67,1111122 
DISL,ioos:station:DISL:CATA:1,2019-04-06T12:30:00Z,30.3085,-88.1395,2.529,8.23,1111122 
DISL,ioos:station:DISL:CATA:1,2019-04-06T13:30:00Z,30.3085,-88.1395,2.536,8.22,1111122 
DISL,ioos:station:DISL:CATA:1,2019-04-06T14:30:00Z,30.3085,-88.1395,2.546,7.1,1111122 
DISL,ioos:station:DISL:CATA:1,2019-04-06T15:30:00Z,30.3085,-88.1395,2.546,8.04,1111122 
DISL,ioos:station:DISL:CATA:1,2019-04-06T16:30:00Z,30.3085,-88.1395,2.532,8.35,1111122 
DISL,ioos:station:DISL:CATA:1,2019-04-06T17:30:00Z,30.3085,-88.1395,2.503,4.07,1111122 
DISL,ioos:station:DISL:CATA:1,2019-04-06T18:30:00Z,30.3085,-88.1395,2.477,3.05,1111122 
DISL,ioos:station:DISL:CATA:1,2019-04-06T19:30:00Z,30.3085,-88.1395,2.471,5.96,1111122 
DISL,ioos:station:DISL:CATA:1,2019-04-06T20:30:00Z,30.3085,-88.1395,2.431,8.52,1111122 
DISL,ioos:station:DISL:CATA:1,2019-04-06T21:30:00Z,30.3085,-88.1395,2.361,9.41,1111122 
DISL,ioos:station:DISL:CATA:1,2019-04-06T22:30:00Z,30.3085,-88.1395,2.299,9.68,1111122 
DISL,ioos:station:DISL:CATA:1,2019-04-06T23:30:00Z,30.3085,-88.1395,2.242,9.89,1111122 
DISL,ioos:station:DISL:CATA:1,2019-04-07T00:30:00Z,30.3085,-88.1395,2.213,9.9,1111122 
DISL,ioos:station:DISL:CATA:1,2019-04-07T01:30:00Z,30.3085,-88.1395,2.232,9.48,1111122 
DISL,ioos:station:DISL:CATA:1,2019-04-07T02:30:00Z,30.3085,-88.1395,2.279,9.35,1111122 
DISL,ioos:station:DISL:CATA:1,2019-04-07T03:30:00Z,30.3085,-88.1395,2.308,7.67,1111122 
DISL,ioos:station:DISL:CATA:1,2019-04-07T04:30:00Z,30.3085,-88.1395,2.32,8.79,1111122 
DISL,ioos:station:DISL:CATA:1,2019-04-07T05:30:00Z,30.3085,-88.1395,2.342,8.51,1111122 
DISL,ioos:station:DISL:CATA:1,2019-04-07T06:30:00Z,30.3085,-88.1395,2.385,8.61,1111122 
DISL,ioos:station:DISL:CATA:1,2019-04-07T07:30:00Z,30.3085,-88.1395,2.452,8.48,1111122 
DISL,ioos:station:DISL:CATA:1,2019-04-07T08:30:00Z,30.3085,-88.1395,2.472,8.59,1111122 
DISL,ioos:station:DISL:CATA:1,2019-04-07T09:30:00Z,30.3085,-88.1395,2.501,8.48,1111122 
DISL,ioos:station:DISL:CATA:1,2019-04-07T10:30:00Z,30.3085,-88.1395,2.508,7.89,1111122 
DISL,ioos:station:DISL:CATA:1,2019-04-07T11:30:00Z,30.3085,-88.1395,2.52,8.01,1111122 
DISL,ioos:station:DISL:CATA:1,2019-04-07T12:30:00Z,30.3085,-88.1395,2.534,8.32,1111122 
DISL,ioos:station:DISL:CATA:1,2019-04-07T13:30:00Z,30.3085,-88.1395,2.56,8.38,1111122 
DISL,ioos:station:DISL:CATA:1,2019-04-07T14:30:00Z,30.3085,-88.1395,2.592,8.47,1111122 
DISL,ioos:station:DISL:CATA:1,2019-04-07T15:30:00Z,30.3085,-88.1395,2.624,8.69,1111122 
DISL,ioos:station:DISL:CATA:1,2019-04-07T16:30:00Z,30.3085,-88.1395,2.636,9.0,1111122 
DISL,ioos:station:DISL:CATA:1,2019-04-07T17:30:00Z,30.3085,-88.1395,2.64,9.22,1111122 
DISL,ioos:station:DISL:CATA:1,2019-04-07T18:30:00Z,30.3085,-88.1395,2.602,8.97,1111122 
DISL,ioos:station:DISL:CATA:1,2019-04-07T19:30:00Z,30.3085,-88.1395,2.574,9.21,1111122 
DISL,ioos:station:DISL:CATA:1,2019-04-07T20:30:00Z,30.3085,-88.1395,2.541,9.35,1111122 
DISL,ioos:station:DISL:CATA:1,2019-04-07T21:30:00Z,30.3085,-88.1395,2.481,9.33,1111122 
DISL,ioos:station:DISL:CATA:1,2019-04-07T22:30:00Z,30.3085,-88.1395,2.388,9.28,1111122 
DISL,ioos:station:DISL:CATA:1,2019-04-07T23:30:00Z,30.3085,-88.1395,2.313,9.25,1111122 
DISL,ioos:station:DISL:CATA:1,2019-04-08T00:30:00Z,30.3085,-88.1395,2.283,9.03,1111122 
DISL,ioos:station:DISL:CATA:1,2019-04-08T01:30:00Z,30.3085,-88.1395,2.287,8.89,1111122 
DISL,ioos:station:DISL:CATA:1,2019-04-08T02:30:00Z,30.3085,-88.1395,2.284,8.81,1111122 
DISL,ioos:station:DISL:CATA:1,2019-04-08T03:30:00Z,30.3085,-88.1395,2.289,8.7,1111122 
DISL,ioos:station:DISL:CATA:1,2019-04-08T04:30:00Z,30.3085,-88.1395,2.328,8.88,1111122 
DISL,ioos:station:DISL:CATA:1,2019-04-08T05:30:00Z,30.3085,-88.1395,2.387,8.24,1111122 
DISL,ioos:station:DISL:CATA:1,2019-04-08T06:30:00Z,30.3085,-88.1395,2.368,8.6,1111122 
DISL,ioos:station:DISL:CATA:1,2019-04-08T07:30:00Z,30.3085,-88.1395,2.399,8.23,1111122 
DISL,ioos:station:DISL:CATA:1,2019-04-08T08:30:00Z,30.3085,-88.1395,2.438,7.99,1111122 
DISL,ioos:station:DISL:CATA:1,2019-04-08T09:30:00Z,30.3085,-88.1395,2.451,8.1,1111122 
DISL,ioos:station:DISL:CATA:1,2019-04-08T10:30:00Z,30.3085,-88.1395,2.522,8.26,1111122 
DISL,ioos:station:DISL:CATA:1,2019-04-08T11:30:00Z,30.3085,-88.1395,2.563,8.25,1111122 
DISL,ioos:station:DISL:CATA:1,2019-04-08T12:30:00Z,30.3085,-88.1395,2.654,8.2,1111122 
DISL,ioos:station:DISL:CATA:1,2019-04-08T13:30:00Z,30.3085,-88.1395,2.645,8.01,1111122 
DISL,ioos:station:DISL:CATA:1,2019-04-08T14:30:00Z,30.3085,-88.1395,2.674,8.06,1111122 
DISL,ioos:station:DISL:CATA:1,2019-04-08T15:30:00Z,30.3085,-88.1395,2.687,7.98,1111122 
DISL,ioos:station:DISL:CATA:1,2019-04-08T16:30:00Z,30.3085,-88.1395,2.768,7.47,1111122 
DISL,ioos:station:DISL:CATA:1,2019-04-08T17:30:00Z,30.3085,-88.1395,2.676,7.98,1111122 
DISL,ioos:station:DISL:CATA:1,2019-04-08T18:30:00Z,30.3085,-88.1395,2.683,8.42,1111122 
DISL,ioos:station:DISL:CATA:1,2019-04-08T19:30:00Z,30.3085,-88.1395,2.685,8.54,1111122 
DISL,ioos:station:DISL:CATA:1,2019-04-08T20:30:00Z,30.3085,-88.1395,2.632,8.49,1111122 
DISL,ioos:station:DISL:CATA:1,2019-04-08T21:30:00Z,30.3085,-88.1395,2.541,8.51,1111122 
DISL,ioos:station:DISL:CATA:1,2019-04-08T22:30:00Z,30.3085,-88.1395,2.505,8.5,1111122 
DISL,ioos:station:DISL:CATA:1,2019-04-08T23:30:00Z,30.3085,-88.1395,2.452,8.56,1111122 
DISL,ioos:station:DISL:CATA:1,2019-04-09T00:30:00Z,30.3085,-88.1395,2.421,8.5,1111122 
DISL,ioos:station:DISL:CATA:1,2019-04-09T01:30:00Z,30.3085,-88.1395,2.411,8.4,1111122 
DISL,ioos:station:DISL:CATA:1,2019-04-09T02:30:00Z,30.3085,-88.1395,2.356,8.24,1111122 
DISL,ioos:station:DISL:CATA:1,2019-04-09T03:30:00Z,30.3085,-88.1395,2.358,8.12,1111122 
DISL,ioos:station:DISL:CATA:1,2019-04-09T04:30:00Z,30.3085,-88.1395,2.362,8.16,1111122 
DISL,ioos:station:DISL:CATA:1,2019-04-09T05:30:00Z,30.3085,-88.1395,2.37,7.58,1111122 
DISL,ioos:station:DISL:CATA:1,2019-04-09T06:30:00Z,30.3085,-88.1395,2.421,7.94,1111122 
DISL,ioos:station:DISL:CATA:1,2019-04-09T07:30:00Z,30.3085,-88.1395,2.443,7.94,1111122 
DISL,ioos:station:DISL:CATA:1,2019-04-09T08:30:00Z,30.3085,-88.1395,2.45,7.96,1111122 
DISL,ioos:station:DISL:CATA:1,2019-04-09T09:30:00Z,30.3085,-88.1395,2.49,7.8,1111122 
DISL,ioos:station:DISL:CATA:1,2019-04-09T10:30:00Z,30.3085,-88.1395,2.543,7.8,1111122 
DISL,ioos:station:DISL:CATA:1,2019-04-09T11:30:00Z,30.3085,-88.1395,2.517,7.71,1111122 
DISL,ioos:station:DISL:CATA:1,2019-04-09T12:30:00Z,30.3085,-88.1395,2.587,7.62,1111122 
DISL,ioos:station:DISL:CATA:1,2019-04-09T13:30:00Z,30.3085,-88.1395,2.594,7.55,1111122 
DISL,ioos:station:DISL:CATA:1,2019-04-09T14:30:00Z,30.3085,-88.1395,2.586,7.44,1111122 
DISL,ioos:station:DISL:CATA:1,2019-04-09T15:30:00Z,30.3085,-88.1395,2.628,7.41,1111122 
DISL,ioos:station:DISL:CATA:1,2019-04-09T16:30:00Z,30.3085,-88.1395,2.671,7.48,1111122 
DISL,ioos:station:DISL:CATA:1,2019-04-09T17:00:00Z,30.3085,-88.1395,2.695,7.82,1111122 
DISL,ioos:station:DISL:CATA:1,2019-04-09T18:30:00Z,30.3085,-88.1395,2.673,7.97,1111122 
DISL,ioos:station:DISL:CATA:1,2019-04-09T19:30:00Z,30.3085,-88.1395,2.667,7.94,1111122 
DISL,ioos:station:DISL:CATA:1,2019-04-09T20:30:00Z,30.3085,-88.1395,2.674,7.8,1111122 
DISL,ioos:station:DISL:CATA:1,2019-04-09T21:30:00Z,30.3085,-88.1395,2.618,7.49,1111122 
DISL,ioos:station:DISL:CATA:1,2019-04-09T22:30:00Z,30.3085,-88.1395,2.563,7.45,1111122 
DISL,ioos:station:DISL:CATA:1,2019-04-09T23:30:00Z,30.3085,-88.1395,2.483,8.57,1111122 
DISL,ioos:station:DISL:CATA:1,2019-04-10T00:30:00Z,30.3085,-88.1395,2.362,8.09,1111122 
DISL,ioos:station:DISL:CATA:1,2019-04-10T01:30:00Z,30.3085,-88.1395,2.311,8.69,1111122 
DISL,ioos:station:DISL:CATA:1,2019-04-10T02:30:00Z,30.3085,-88.1395,2.268,8.75,1111122 
DISL,ioos:station:DISL:CATA:1,2019-04-10T03:30:00Z,30.3085,-88.1395,2.24,8.79,1111122 
DISL,ioos:station:DISL:CATA:1,2019-04-10T04:30:00Z,30.3085,-88.1395,2.219,8.84,1111122 
DISL,ioos:station:DISL:CATA:1,2019-04-10T05:30:00Z,30.3085,-88.1395,2.211,8.87,1111122 
DISL,ioos:station:DISL:CATA:1,2019-04-10T06:30:00Z,30.3085,-88.1395,2.223,8.77,1111122 
DISL,ioos:station:DISL:CATA:1,2019-04-10T07:30:00Z,30.3085,-88.1395,2.249,7.27,1111122 
DISL,ioos:station:DISL:CATA:1,2019-04-10T08:30:00Z,30.3085,-88.1395,2.277,8.21,1111122 
DISL,ioos:station:DISL:CATA:1,2019-04-10T09:30:00Z,30.3085,-88.1395,2.307,8.53,1111122 
DISL,ioos:station:DISL:CATA:1,2019-04-10T10:30:00Z,30.3085,-88.1395,2.351,8.47,1111122 
DISL,ioos:station:DISL:CATA:1,2019-04-10T11:30:00Z,30.3085,-88.1395,2.384,8.2,1111122 
DISL,ioos:station:DISL:CATA:1,2019-04-10T12:30:00Z,30.3085,-88.1395,2.428,6.49,1111122 
DISL,ioos:station:DISL:CATA:1,2019-04-10T13:30:00Z,30.3085,-88.1395,2.481,6.31,1111122 
DISL,ioos:station:DISL:CATA:1,2019-04-10T14:30:00Z,30.3085,-88.1395,2.542,6.44,1111122 
DISL,ioos:station:DISL:CATA:1,2019-04-10T15:30:00Z,30.3085,-88.1395,2.577,7.09,1111122 
DISL,ioos:station:DISL:CATA:1,2019-04-10T16:30:00Z,30.3085,-88.1395,2.617,6.85,1111122 
DISL,ioos:station:DISL:CATA:1,2019-04-10T17:30:00Z,30.3085,-88.1395,2.649,7.5,1111122 
DISL,ioos:station:DISL:CATA:1,2019-04-10T18:30:00Z,30.3085,-88.1395,2.663,8.67,1111122 
DISL,ioos:station:DISL:CATA:1,2019-04-10T19:30:00Z,30.3085,-88.1395,2.656,8.51,1111122 
DISL,ioos:station:DISL:CATA:1,2019-04-10T20:30:00Z,30.3085,-88.1395,2.632,8.53,1111122 
DISL,ioos:station:DISL:CATA:1,2019-04-10T21:30:00Z,30.3085,-88.1395,2.585,8.25,1111122 
DISL,ioos:station:DISL:CATA:1,2019-04-10T22:30:00Z,30.3085,-88.1395,2.537,6.68,1111122 
DISL,ioos:station:DISL:CATA:1,2019-04-10T23:30:00Z,30.3085,-88.1395,2.48,5.73,1111122 
DISL,ioos:station:DISL:CATA:1,2019-04-11T00:30:00Z,30.3085,-88.1395,2.422,7.99,1111122 
DISL,ioos:station:DISL:CATA:1,2019-04-11T01:30:00Z,30.3085,-88.1395,2.344,7.69,1111122 
DISL,ioos:station:DISL:CATA:1,2019-04-11T02:30:00Z,30.3085,-88.1395,2.273,7.81,1111122 
DISL,ioos:station:DISL:CATA:1,2019-04-11T03:30:00Z,30.3085,-88.1395,2.221,7.77,1111122 
DISL,ioos:station:DISL:CATA:1,2019-04-11T04:30:00Z,30.3085,-88.1395,2.19,7.68,1111122 
DISL,ioos:station:DISL:CATA:1,2019-04-11T05:30:00Z,30.3085,-88.1395,2.161,7.77,1111122 
DISL,ioos:station:DISL:CATA:1,2019-04-11T06:30:00Z,30.3085,-88.1395,2.151,7.87,1111122 
DISL,ioos:station:DISL:CATA:1,2019-04-11T07:30:00Z,30.3085,-88.1395,2.167,7.83,1111122 
DISL,ioos:station:DISL:CATA:1,2019-04-11T08:30:00Z,30.3085,-88.1395,2.204,7.7,1111122 
DISL,ioos:station:DISL:CATA:1,2019-04-11T09:30:00Z,30.3085,-88.1395,2.263,6.74,1111122 
DISL,ioos:station:DISL:CATA:1,2019-04-11T10:30:00Z,30.3085,-88.1395,2.305,8.26,1111122 
DISL,ioos:station:DISL:CATA:1,2019-04-11T11:30:00Z,30.3085,-88.1395,2.351,7.51,1111122 
DISL,ioos:station:DISL:CATA:1,2019-04-11T12:30:00Z,30.3085,-88.1395,2.402,7.31,1111122 
DISL,ioos:station:DISL:CATA:1,2019-04-11T13:30:00Z,30.3085,-88.1395,2.47,7.64,1111122 
DISL,ioos:station:DISL:CATA:1,2019-04-11T14:30:00Z,30.3085,-88.1395,2.547,7.84,1111122 
DISL,ioos:station:DISL:CATA:1,2019-04-11T15:30:00Z,30.3085,-88.1395,2.61,8.09,1111122 
DISL,ioos:station:DISL:CATA:1,2019-04-11T16:30:00Z,30.3085,-88.1395,2.659,8.25,1111122 
DISL,ioos:station:DISL:CATA:1,2019-04-11T17:30:00Z,30.3085,-88.1395,2.708,8.37,1111122 
DISL,ioos:station:DISL:CATA:1,2019-04-11T18:30:00Z,30.3085,-88.1395,2.746,8.52,1111122 
DISL,ioos:station:DISL:CATA:1,2019-04-11T19:30:00Z,30.3085,-88.1395,2.755,8.44,1111122 
DISL,ioos:station:DISL:CATA:1,2019-04-11T20:30:00Z,30.3085,-88.1395,2.745,7.8,1111122 
DISL,ioos:station:DISL:CATA:1,2019-04-11T21:30:00Z,30.3085,-88.1395,2.69,8.33,1111122 
DISL,ioos:station:DISL:CATA:1,2019-04-11T22:30:00Z,30.3085,-88.1395,2.628,8.59,1111122 
DISL,ioos:station:DISL:CATA:1,2019-04-11T23:30:00Z,30.3085,-88.1395,2.562,8.5,1111122 
DISL,ioos:station:DISL:CATA:1,2019-04-12T00:30:00Z,30.3085,-88.1395,2.487,8.49,1111122 
DISL,ioos:station:DISL:CATA:1,2019-04-12T01:30:00Z,30.3085,-88.1395,2.424,8.48,1111122 
DISL,ioos:station:DISL:CATA:1,2019-04-12T02:30:00Z,30.3085,-88.1395,2.358,8.32,1111122 
DISL,ioos:station:DISL:CATA:1,2019-04-12T03:30:00Z,30.3085,-88.1395,2.314,8.15,1111122 
DISL,ioos:station:DISL:CATA:1,2019-04-12T04:30:00Z,30.3085,-88.1395,2.283,8.12,1111122 
DISL,ioos:station:DISL:CATA:1,2019-04-12T05:30:00Z,30.3085,-88.1395,2.244,8.0,1111122 
DISL,ioos:station:DISL:CATA:1,2019-04-12T06:30:00Z,30.3085,-88.1395,2.241,7.95,1111122 
DISL,ioos:station:DISL:CATA:1,2019-04-12T07:30:00Z,30.3085,-88.1395,2.259,7.86,1111122 